This is the latest recevied weather packets stored in our database for station/object IK2ILW-4. If no packets are shown the sender has not sent any weather packets the latest 10 day(s).
| Time | Temp. | Humidity | Pressure | Rain* | Wind** | Luminosity | Snow |
|---|---|---|---|---|---|---|---|
| 1787727768 | 17.22° C | 80% | 1021.8 hPa | 0.51 mm | - | 327 W/m² | - |
| 1787727468 | 16.67° C | 78% | 1022.5 hPa | 0.51 mm | - | 359 W/m² | - |
| 1787727162 | 17.22° C | 77% | 1022.5 hPa | 0.51 mm | - | 362 W/m² | - |
| 1787726872 | 17.22° C | 76% | 1022.5 hPa | 0.51 mm | - | 338 W/m² | - |
| 1787726570 | 17.22° C | 76% | 1022.4 hPa | 0.51 mm | - | 318 W/m² | - |
| 1787726259 | 17.22° C | 79% | 1022.4 hPa | 0.25 mm | - | 311 W/m² | - |
| 1787725970 | 17.22° C | 80% | 1022.4 hPa | 0.25 mm | - | 304 W/m² | - |
| 1787725660 | 17.22° C | 78% | 1022.5 hPa | 0.25 mm | - | 294 W/m² | - |
| 1787725359 | 17.22° C | 81% | 1022.5 hPa | 0.25 mm | - | 271 W/m² | - |
| 1787725072 | 16.67° C | 82% | 1022.5 hPa | 0.25 mm | - | 250 W/m² | - |
| 1787724754 | 16.67° C | 85% | 1021.4 hPa | 0.25 mm | - | 239 W/m² | - |
| 1787724464 | 16.11° C | 86% | 1021.4 hPa | 0.25 mm | - | 221 W/m² | - |
| 1787724175 | 15.56° C | 87% | 1021.4 hPa | 0.25 mm | - | 204 W/m² | - |
| 1787723872 | 15.56° C | 88% | 1021.3 hPa | 0.25 mm | - | 190 W/m² | - |
| 1787723564 | 15.56° C | 90% | 1021.3 hPa | 0.25 mm | - | 174 W/m² | - |
| 1787723274 | 15.56° C | 91% | 1021.3 hPa | 0.25 mm | - | 23 W/m² | - |
| 1787722970 | 15.56° C | 91% | 1021.2 hPa | 0.25 mm | - | 21 W/m² | - |
| 1787722661 | 15° C | 91% | 1021.2 hPa | 0.25 mm | - | 19 W/m² | - |
| 1787722369 | 15° C | 90% | 1021.2 hPa | 0.25 mm | - | 19 W/m² | - |
| 1787722061 | 15° C | 90% | 1021.1 hPa | 0.25 mm | - | 18 W/m² | - |
| 1787721754 | 15° C | 90% | 1021.1 hPa | 0.25 mm | - | 16 W/m² | - |
| 1787721465 | 15° C | 90% | 1021.1 hPa | 0.25 mm | - | 16 W/m² | - |
| 1787721154 | 15° C | 90% | 1021.9 hPa | 0.25 mm | - | 14 W/m² | - |
| 1787720866 | 15° C | 89% | 1021.9 hPa | 0.25 mm | - | 12 W/m² | - |
| 1787720571 | 15° C | 89% | 1021.9 hPa | 0.25 mm | - | 12 W/m² | - |
* Rain since midnight (hover to see other rain measurements)
** Current wind speed in m/s (hover to see current wind gust speed)